Regional Weather Roundup
Issued by NWS San Diego, CA

Home | Current Version | Previous Version | Text Only | Print | Product List | Glossary On
Versions: 1 2 3 4 5 6 7 8 9 10 11 12 13 14 15 16 17 18 19 20 21 22 23 24 25 26 27 28 29 30 31 32 33 34 35 36 37 38 39 40 41 42 43 44 45 46 47 48 49 50
000
ASUS46 KSGX 221111
RWRSGX

SAN DIEGO HOURLY WEATHER ROUNDUP
NATIONAL WEATHER SERVICE SAN DIEGO CA
400 AM PDT FRI MAY 22 2015

NOTE: "FAIR" INDICATES FEW OR NO CLOUDS BELOW 12,000 FEET WITH NO
SIGNIFICANT WEATHER AND/OR OBSTRUCTIONS TO VISIBILITY.

CAZ042-043-060-061-PZZ750-775-221200-

GREATER SAN DIEGO AREA

CITY           SKY/WX    TMP DP  RH WIND       PRES   REMARKS
LINDBERGH FLD  MOCLDY    62  50  64 W10       30.02S
POINT LOMA       N/A     58  49  72 NW15        N/A
NATIONAL CITY    N/A     61  52  72 W9        30.01S
CHULA VISTA      N/A     60  53  76 W8        29.94S
IMPERIAL BEACH PTCLDY    61  52  72 W12       30.01S
BROWN FIELD    MOCLDY    58  51  78 W7        30.01R
MIRAMAR MCAS   MOCLDY    61  49  64 W7        29.99F
MONTGOMERY FLD MOCLDY    59  50  72 W7        30.00S

$$

NORTH SAN DIEGO COUNTY

CITY           SKY/WX    TMP DP  RH WIND       PRES   REMARKS
CAMP PENDLETON MOCLDY    57  51  80 MISG      29.98S
OCEANSIDE AP   MOCLDY    60  51  72 NW6       29.97S
OCEANSIDE HBR    N/A     62  54  75 W14       30.01S
VISTA            N/A     58  52  81 CALM      29.97S
CARLSBAD       PTCLDY    59  52  77 W5        29.98S
DEL MAR          N/A     59  53  79 NW3       30.02R
LA JOLLA SCRIP   N/A    N/A N/A N/A W12       29.98S
FALLBROOK        N/A     55  55 100 CALM      29.98S
ESCONDIDO        N/A     56  53  89 CALM      30.00S
SAN MARCOS       N/A     56  52  87 W3        29.98R
POWAY            N/A     56  52  89 CALM      30.02R

$$

EAST SAN DIEGO COUNTY

CITY           SKY/WX    TMP DP  RH WIND       PRES   REMARKS
RAMONA         CLOUDY    53  50  89 W7        29.99S
SANTEE LAKES     N/A     58  51  78 CALM      30.00S
LA MESA          N/A     57  51  81 CALM      29.94S
JAMUL            N/A     54  51  89 CALM      30.00S
DESCANSO N       N/A     44  43  94 W2        29.90S
MT. LAGUNA OBS   N/A     33  33 100 SW18      29.54S WCI  22
CAMPO            N/A     48  43  82 W16       29.95S

$$

ORANGE COUNTY AND THE LOS ANGELES BASIN

CITY           SKY/WX    TMP DP  RH WIND       PRES   REMARKS
JOHN WAYNE AP  CLOUDY    60  50  69 CALM      29.98S
LAKE FOREST FR   N/A     54  47  78 CALM      29.89S
SANTA ANA        N/A     59  51  74 CALM      29.94R
HUNTINGTON BCH   N/A     60  54  81 W6        30.00R
LOS ALAMITOS   CLOUDY    59  52  78 W8        29.98R
FULLERTON      MOCLDY    59  51  75 W5        29.97S
LONG BEACH     MOCLDY    60  50  69 W9        29.98S
L.A. AP        PTCLDY    57  52  83 W14       29.98S
L.A. DOWNTOWN  MOCLDY    57  53  86 VRB3      29.97S

$$

THE INLAND EMPIRE

CITY           SKY/WX    TMP DP  RH WIND       PRES   REMARKS
CORONA         CLOUDY    54  47  77 CALM      29.98S
CHINO          CLOUDY    56  48  74 W5        29.98F
ONTARIO        CLOUDY    55  46  71 W6        29.97S
RIVERSIDE AP   MOCLDY    56  47  71 CALM      29.98S
RIV CYN CREST    N/A     55  53  93 NW1         N/A
MORENO VALLEY    N/A     52  50  93 SW3       29.95S
MARCH ARB      MOCLDY    53  45  73 NW6       29.97S
HORSETHIEF CYN   N/A     52  46  77 CALM      29.94S
PERRIS           N/A     53  47  79 NW5         N/A
MENIFEE          N/A     55  51  83 E2        30.03F
HEMET EAST       N/A     51  44  77 CALM      29.97F
FRENCH VALLEY  CLOUDY    54  50  87 S6        29.98S
TEMECULA         N/A     55  53  94 S5        29.95S

$$

SAN BERNARDINO AND RIVERSIDE COUNTY MOUNTAINS

CITY           SKY/WX    TMP DP  RH WIND       PRES   REMARKS
BIG BEAR AP    MOCLDY    34  32  93 SW5       29.97S WCI  30
ANGELUS OAKS     N/A     37  34  91 CALM      29.90S
PINE COVE        N/A     36  36 100 N2        29.95S

$$

SOUTHERN DESERT INCLUDING THE COACHELLA VALLEY

CITY           SKY/WX    TMP DP  RH WIND       PRES   REMARKS
PALM SPRINGS   PTCLDY    65  42  43 NW12      29.86R
THOUSAND PALMS   N/A     63  44  51 NW1       29.84R
PALM DESERT      N/A     62  46  55 CALM        N/A
THERMAL        CLEAR     65  44  46 N14       29.83R
BLYTHE         CLEAR     62  44  51 S15       29.84R
IMPERIAL AP    CLEAR     63  43  48 W23G36    29.87R
EL CENTRO NAS  CLEAR     63  42  46 W25       29.91R
YUMA AZ        CLOUDY    63  42  46 NW13      29.88R

$$

UPPER DESERT

CITY           SKY/WX    TMP DP  RH WIND       PRES   REMARKS
VICTORVILLE AP MOCLDY    52  37  58 S8        29.91F
HESPERIA         N/A     49  41  73 W7        30.03
APPLE VALLEY     N/A     51  38  60 SW5G17    30.00S
PALMDALE       MOCLDY    52  41  66 SW21      29.92S
LANCASTER      CLOUDY    51  43  74 W18       29.93S
EDWARDS AFB    MOCLDY    52  42  69 SW17      29.89R
DAGGETT        MOCLDY    58  38  47 SW22G31   29.87R
29 PALMS N     PTCLDY    57  38  48 W8        29.93R
NEEDLES        PTCLDY    69  37  30 SW6       29.80R

$$

REGIONAL REPORTS

CITY           SKY/WX    TMP DP  RH WIND       PRES   REMARKS
SANTA BARBARA  MOCLDY    57  47  69 CALM      29.96S
SANDBERG       FOG       44  42  93 S6        29.97S VSB 1/4
LAS VEGAS NV   MOCLDY    63  40  42 S16       29.77R
PHOENIX AZ     PTCLDY    69  36  29 E8        29.85S
TIJUANA        PTCLDY    57  48  72 W8        30.03F
ENSENADA NW      N/A     59  32  35 N1        30.00F

$$

OFFSHORE ISLANDS

CITY           SKY/WX    TMP DP  RH WIND       PRES   REMARKS
CATALINA ARPT  MOCLDY    51  49  92 W15       29.99F
SAN NICOLAS IS CLEAR    N/A N/A N/A W13       29.99F

$$

MARINE AND OFFSHORE BUOY REPORTS

STATION/POSITION SKY/WX   TEMP    WIND        PRES    SWELL
                          AIR SEA DIR/SP/G            HT/PER/DIR
                          (F)     (DEG/KT/KT) (MB)    (FT/S/D)
TANNER BANKS               61 62  290/ 12/ 14 1016.2F   3/280/14
S CLEMENTE BASIN           60 62  290/ 14/ 17 1015.9S   2/290/13
SAN NICOLAS IS.               58                N/A     2/290/13
SO. S. ROSA ISLA           58 59  290/ 10/ 10 1015.1F   3/13
W. S. BARBARA CH           57 58  310/  8/ 10 1015.0F   3/300/13
S. MONICA BASIN            59 62  280/ 16/ 17 1015.1F   2/280/14
S PEDRO CHANNEL               63                N/A     2/260/11
DANA POINT                    63                N/A     2/200/17
OCEANSIDE OFFSHR              64                N/A     2/190/13
TORREY PINES OTR              63                N/A     2/260/13
LA JOLLA 1                 61 64  280/  8/ 10 1015.6F
MISSION BAY BUOY              64                N/A     2/210/13
SAN DIEGO BAY                 68              1016.3F
POINT LOMA SOUTH              63                N/A     2/250/13

$$



USA.gov is the U.S. government's official web portal to all federal, state and local government web resources and services.